Palmdale - Butte, CA

2:59 AM PDT on August 17, 2017 (GMT -0700)
Palmdale - Butte

Weather History for KGXA - August, 2013

Change the Weather History Date:

Monday, August 12, 2013

  Actual Average (KPMD) Record (KPMD)
Temperature  
Mean Temperature 78 °F -  
Max Temperature 94 °F 96 °F 110 °F (1933)
Min Temperature 61 °F 65 °F 48 °F (1949)
Cooling Degree Days 12    
Growing Degree Days 28 (Base 50)    
Moisture  
Dew Point 35 °F    
Average Humidity 23    
Maximum Humidity 40    
Minimum Humidity 10    
Precipitation  
Precipitation 0.00 in - - ()
Sea Level Pressure  
Sea Level Pressure 29.85 in    
Wind  
Wind Speed 6 mph (WSW)    
Max Wind Speed 14 mph    
Max Gust Speed 22 mph    
Visibility 10 miles    
Events      
Averages and records for this station are not official NWS values.
T = Trace of Precipitation, MM = Missing Value Source: NWS Daily Summary

Daily Weather History Graph

Daily Weather History Graph

Search for Another Location

Airport or City:

Trip Planner

Search our weather history database for the weather conditions in past years. The results will help you decide how hot, cold, wet, or windy it might be!

Date:

Astronomy

Aug. 12, 2013 Rise Set
Actual Time 6:09 AM PDT 7:41 PM PDT
Civil Twilight 5:42 AM PDT 8:08 PM PDT
Nautical Twilight 5:10 AM PDT 8:40 PM PDT
Astronomical Twilight 4:36 AM PDT 9:13 PM PDT
Moon 11:47 AM PDT (8/12) 10:55 PM PDT (8/12)
Length of Visible Light 14h 25m
Length of Day
13h 31m
Waxing Crescent, 32% of the Moon is Illuminated
Aug 12
Waxing Crescent
Aug 14
First Quarter
Aug 20
Full
Aug 28
Last Quarter
Sep 5
New

Hourly Weather History & Observations

Time (PDT) Temp. Dew Point Humidity Pressure Visibility Wind Dir Wind Speed Gust Speed Precip Events Conditions
12:55 AM 65.8 °F 37.0 °F 35% 29.86 in 10.0 mi South 5.8 mph - N/A   Clear
1:55 AM 64.6 °F 34.9 °F 33% 29.85 in 10.0 mi South 4.6 mph - N/A   Clear
2:55 AM 63.9 °F 31.6 °F 30% 29.85 in 10.0 mi South 4.6 mph - N/A   Clear
3:55 AM 62.4 °F 30.4 °F 30% 29.84 in 10.0 mi South 5.8 mph - N/A   Clear
4:55 AM 61.5 °F 29.8 °F 30% 29.85 in 10.0 mi SSW 5.8 mph - N/A   Clear
5:55 AM 61.5 °F 31.5 °F 32% 29.86 in 10.0 mi SSW 4.6 mph - N/A   Clear
6:55 AM 62.6 °F 31.1 °F 31% 29.88 in 10.0 mi South 4.6 mph - N/A   Clear
7:55 AM 72.7 °F 34.9 °F 25% 29.88 in 10.0 mi SW 3.5 mph - N/A   Clear
8:55 AM 75.9 °F 38.8 °F 26% 29.89 in 10.0 mi WNW 4.6 mph - N/A   Clear
9:55 AM 79.5 °F 37.2 °F 22% 29.90 in 10.0 mi NNW 3.5 mph - N/A   Clear
10:55 AM 84.6 °F 32.4 °F 15% 29.90 in 10.0 mi Variable 3.5 mph - N/A   Clear
11:55 AM 88.7 °F 30.7 °F 13% 29.88 in 10.0 mi NW 8.1 mph 13.8 mph N/A   Clear
12:55 PM 91.8 °F 30.2 °F 11% 29.86 in 10.0 mi Variable 5.8 mph - N/A   Clear
1:55 PM 93.0 °F 28.8 °F 10% 29.83 in 10.0 mi Variable 6.9 mph - N/A   Clear
2:55 PM 93.9 °F 28.9 °F 10% 29.82 in 10.0 mi WNW 8.1 mph 16.1 mph N/A   Clear
3:55 PM 93.6 °F 28.0 °F 10% 29.81 in 10.0 mi NW 6.9 mph - N/A   Clear
4:55 PM 94.3 °F 30.2 °F 10% 29.80 in 10.0 mi Variable 6.9 mph - N/A   Clear
5:55 PM 92.8 °F 33.3 °F 12% 29.80 in 10.0 mi WNW 13.8 mph 19.6 mph N/A   Clear
6:55 PM 89.6 °F 32.5 °F 13% 29.81 in 10.0 mi West 13.8 mph 21.9 mph N/A   Clear
7:55 PM 83.1 °F 43.2 °F 24% 29.82 in 10.0 mi WNW 13.8 mph - N/A   Clear
8:55 PM 78.3 °F 45.1 °F 31% 29.85 in 10.0 mi WNW 10.4 mph - N/A   Clear
9:55 PM 75.0 °F 46.2 °F 36% 29.87 in 10.0 mi West 5.8 mph - N/A   Clear
10:55 PM 71.4 °F 45.9 °F 40% 29.87 in 10.0 mi Variable 4.6 mph - N/A   Clear
11:55 PM 69.8 °F 40.1 °F 34% 29.87 in 10.0 mi WSW 5.8 mph - N/A   Clear